Time,TemperatureF,DewpointF,PressureIn,WindDirection,WindDirectionDegrees,WindSpeedMPH,WindSpeedGustMPH,Humidity,HourlyPrecipIn,Conditions,Clouds,dailyrainin,SoftwareType,DateUTC
2013-06-29 00:31:00,64.0,59.0,29.77,North,6,5.0,13.0,84,0.00,,,0.09,,2013-06-29 05:31:00,
2013-06-29 00:41:00,64.0,59.0,29.77,North,6,5.0,13.0,84,0.00,,,0.09,,2013-06-29 05:41:00,
2013-06-29 00:52:00,63.0,59.0,29.76,North,359,6.0,13.0,86,0.00,,,0.09,,2013-06-29 05:52:00,
2013-06-29 01:01:00,63.0,59.0,29.76,North,359,6.0,13.0,86,0.00,,,0.09,,2013-06-29 06:01:00,
2013-06-29 01:12:00,63.0,59.0,29.76,NE,38,4.0,11.0,87,0.00,,,0.09,,2013-06-29 06:12:00,
2013-06-29 01:22:00,62.0,58.0,29.75,North,4,7.0,11.0,88,0.00,,,0.09,,2013-06-29 06:22:00,
2013-06-29 01:33:00,62.0,58.0,29.75,North,4,7.0,11.0,88,0.00,,,0.09,,2013-06-29 06:33:00,
2013-06-29 01:43:00,62.0,58.0,29.76,North,359,4.0,9.0,88,0.00,,,0.09,,2013-06-29 06:43:00,
2013-06-29 01:53:00,62.0,58.0,29.76,North,5,6.0,12.0,88,0.00,,,0.09,,2013-06-29 06:53:00,
2013-06-29 02:02:00,62.0,58.0,29.76,North,5,6.0,12.0,88,0.00,,,0.09,,2013-06-29 07:02:00,
2013-06-29 02:12:00,62.0,58.0,29.76,North,5,6.0,12.0,88,0.00,,,0.09,,2013-06-29 07:12:00,
2013-06-29 02:22:00,62.0,58.0,29.76,NNE,16,5.0,11.0,88,0.00,,,0.09,,2013-06-29 07:22:00,
2013-06-29 02:33:00,62.0,58.0,29.76,NNE,16,5.0,11.0,88,0.00,,,0.09,,2013-06-29 07:33:00,
2013-06-29 02:43:00,61.0,58.0,29.76,NNE,27,4.0,10.0,89,0.00,,,0.09,,2013-06-29 07:43:00,
2013-06-29 02:53:00,61.0,57.0,29.76,North,359,8.0,12.0,88,0.00,,,0.09,,2013-06-29 07:53:00,
2013-06-29 03:01:00,61.0,57.0,29.76,North,359,8.0,12.0,88,0.00,,,0.09,,2013-06-29 08:01:00,
2013-06-29 03:12:00,61.0,57.0,29.76,North,10,8.0,16.0,88,0.00,,,0.09,,2013-06-29 08:12:00,
2013-06-29 03:22:00,61.0,58.0,29.76,NE,39,9.0,15.0,89,0.00,,,0.09,,2013-06-29 08:22:00,
2013-06-29 03:33:00,61.0,58.0,29.76,NE,39,9.0,15.0,89,0.00,,,0.09,,2013-06-29 08:33:00,
2013-06-29 03:43:00,61.0,58.0,29.75,NE,53,7.0,12.0,89,0.00,,,0.09,,2013-06-29 08:43:00,
2013-06-29 03:52:00,60.0,57.0,29.75,NNE,13,5.0,10.0,90,0.00,,,0.09,,2013-06-29 08:52:00,
2013-06-29 04:02:00,60.0,57.0,29.75,NNE,13,5.0,10.0,90,0.00,,,0.09,,2013-06-29 09:02:00,
2013-06-29 04:12:00,60.0,57.0,29.75,NE,40,4.0,10.0,90,0.00,,,0.09,,2013-06-29 09:12:00,
2013-06-29 04:22:00,60.0,57.0,29.76,NNE,16,4.0,10.0,90,0.00,,,0.09,,2013-06-29 09:22:00,
2013-06-29 04:33:00,60.0,57.0,29.76,NNE,16,4.0,10.0,90,0.00,,,0.09,,2013-06-29 09:33:00,
2013-06-29 04:42:00,60.0,57.0,29.76,NNE,17,4.0,11.0,90,0.00,,,0.09,,2013-06-29 09:42:00,
2013-06-29 04:53:00,60.0,57.0,29.76,NNE,30,6.0,11.0,91,0.00,,,0.09,,2013-06-29 09:53:00,
2013-06-29 05:01:00,60.0,57.0,29.76,NNE,30,6.0,11.0,91,0.00,,,0.09,,2013-06-29 10:01:00,
2013-06-29 05:11:00,60.0,57.0,29.77,NNE,28,3.0,13.0,91,0.00,,,0.09,,2013-06-29 10:11:00,
2013-06-29 05:22:00,60.0,57.0,29.77,North,349,4.0,10.0,91,0.00,,,0.09,,2013-06-29 10:22:00,
2013-06-29 05:33:00,60.0,57.0,29.77,North,349,4.0,10.0,91,0.00,,,0.09,,2013-06-29 10:33:00,
2013-06-29 05:43:00,60.0,57.0,29.77,NE,43,3.0,11.0,91,0.00,,,0.09,,2013-06-29 10:43:00,
2013-06-29 05:52:00,61.0,58.0,29.78,NNE,18,6.0,12.0,90,0.00,,,0.09,,2013-06-29 10:52:00,
2013-06-29 06:02:00,61.0,58.0,29.78,NNE,18,6.0,12.0,90,0.00,,,0.09,,2013-06-29 11:02:00,
2013-06-29 06:11:00,61.0,58.0,29.78,NNE,16,6.0,14.0,90,0.00,,,0.09,,2013-06-29 11:11:00,
2013-06-29 06:23:00,61.0,58.0,29.78,ENE,60,5.0,13.0,89,0.00,,,0.09,,2013-06-29 11:23:00,
2013-06-29 06:33:00,61.0,58.0,29.78,ENE,60,5.0,13.0,89,0.00,,,0.09,,2013-06-29 11:33:00,
2013-06-29 06:43:00,61.0,58.0,29.78,ENE,63,8.0,14.0,89,0.00,,,0.09,,2013-06-29 11:43:00,
2013-06-29 06:53:00,61.0,57.0,29.79,ENE,63,8.0,18.0,88,0.00,,,0.09,,2013-06-29 11:53:00,
2013-06-29 07:02:00,61.0,57.0,29.79,ENE,63,8.0,18.0,88,0.00,,,0.09,,2013-06-29 12:02:00,
2013-06-29 07:12:00,61.0,57.0,29.79,NE,44,8.0,15.0,88,0.00,,,0.09,,2013-06-29 12:12:00,
2013-06-29 07:22:00,61.0,57.0,29.79,North,354,9.0,16.0,88,0.00,,,0.09,,2013-06-29 12:22:00,
2013-06-29 07:34:00,61.0,57.0,29.79,North,354,9.0,16.0,88,0.00,,,0.09,,2013-06-29 12:34:00,
2013-06-29 07:43:00,61.0,57.0,29.80,NE,37,9.0,17.0,88,0.00,,,0.09,,2013-06-29 12:43:00,
2013-06-29 07:53:00,61.0,57.0,29.80,NE,38,7.0,14.0,88,0.00,,,0.09,,2013-06-29 12:53:00,
2013-06-29 08:02:00,61.0,57.0,29.80,NE,38,7.0,14.0,88,0.00,,,0.09,,2013-06-29 13:02:00,
2013-06-29 08:11:00,61.0,57.0,29.80,NE,40,8.0,14.0,88,0.00,,,0.09,,2013-06-29 13:11:00,
2013-06-29 08:23:00,62.0,58.0,29.81,NNE,22,7.0,15.0,86,0.00,,,0.09,,2013-06-29 13:23:00,
2013-06-29 08:34:00,62.0,58.0,29.81,NNE,22,7.0,15.0,86,0.00,,,0.09,,2013-06-29 13:34:00,
2013-06-29 08:43:00,63.0,58.0,29.81,ENE,57,9.0,18.0,84,0.00,,,0.09,,2013-06-29 13:43:00,
2013-06-29 08:53:00,63.0,58.0,29.82,NNE,12,9.0,17.0,84,0.00,,,0.09,,2013-06-29 13:53:00,
2013-06-29 09:02:00,63.0,58.0,29.82,NNE,12,9.0,17.0,84,0.00,,,0.09,,2013-06-29 14:02:00,
2013-06-29 09:12:00,63.0,58.0,29.82,NNE,12,9.0,17.0,84,0.00,,,0.09,,2013-06-29 14:12:00,
2013-06-29 09:23:00,63.0,58.0,29.83,NE,53,8.0,21.0,83,0.00,,,0.09,,2013-06-29 14:23:00,
2013-06-29 09:34:00,63.0,58.0,29.83,NE,53,8.0,21.0,83,0.00,,,0.09,,2013-06-29 14:34:00,
2013-06-29 09:45:00,63.0,58.0,29.83,NNE,30,10.0,18.0,83,0.00,,,0.09,,2013-06-29 14:45:00,
2013-06-29 09:53:00,63.0,57.0,29.84,NNE,18,10.0,17.0,82,0.00,,,0.09,,2013-06-29 14:53:00,
2013-06-29 10:01:00,63.0,57.0,29.84,NNE,18,10.0,17.0,82,0.00,,,0.09,,2013-06-29 15:01:00,
2013-06-29 10:11:00,63.0,57.0,29.84,NNE,28,11.0,19.0,81,0.00,,,0.09,,2013-06-29 15:11:00,
2013-06-29 10:22:00,62.0,57.0,29.85,NNE,28,14.0,19.0,84,0.00,,,0.09,,2013-06-29 15:22:00,
2013-06-29 10:33:00,62.0,57.0,29.85,NNE,28,14.0,19.0,84,0.00,,,0.09,,2013-06-29 15:33:00,
2013-06-29 10:42:00,61.0,57.0,29.85,NE,48,9.0,17.0,87,0.00,,,0.09,,2013-06-29 15:42:00,
2013-06-29 10:53:00,60.0,56.0,29.86,NE,47,9.0,15.0,87,0.01,,,0.10,,2013-06-29 15:53:00,
2013-06-29 11:02:00,60.0,56.0,29.86,NE,47,9.0,15.0,87,0.01,,,0.10,,2013-06-29 16:02:00,
2013-06-29 11:12:00,61.0,57.0,29.86,NE,36,8.0,15.0,86,0.01,,,0.10,,2013-06-29 16:12:00,
2013-06-29 11:22:00,61.0,57.0,29.86,NNE,22,10.0,20.0,86,0.01,,,0.10,,2013-06-29 16:22:00,
2013-06-29 11:33:00,61.0,57.0,29.86,NNE,22,10.0,20.0,86,0.01,,,0.10,,2013-06-29 16:33:00,
2013-06-29 11:43:00,61.0,56.0,29.87,NE,55,9.0,15.0,85,0.01,,,0.10,,2013-06-29 16:43:00,
2013-06-29 11:53:00,62.0,58.0,29.87,NE,43,7.0,12.0,88,0.00,,,0.10,,2013-06-29 16:53:00,
2013-06-29 12:01:00,62.0,58.0,29.87,NE,43,7.0,12.0,88,0.00,,,0.10,,2013-06-29 17:01:00,
2013-06-29 12:12:00,62.0,58.0,29.87,NE,43,7.0,12.0,88,0.00,,,0.10,,2013-06-29 17:12:00,
2013-06-29 12:23:00,62.0,58.0,29.87,NE,43,7.0,12.0,88,0.00,,,0.10,,2013-06-29 17:23:00,
2013-06-29 12:34:00,62.0,58.0,29.87,NE,43,7.0,12.0,88,0.00,,,0.10,,2013-06-29 17:34:00,
2013-06-29 14:22:00,70.0,61.0,29.88,NE,53,4.0,12.0,72,0.00,,,0.04,,2013-06-29 19:22:00,
2013-06-29 14:34:00,70.0,61.0,29.88,NE,53,4.0,12.0,72,0.00,,,0.04,,2013-06-29 19:34:00,
2013-06-29 14:43:00,70.0,59.0,29.88,North,359,9.0,19.0,69,0.00,,,0.04,,2013-06-29 19:43:00,
2013-06-29 14:54:00,70.0,59.0,29.88,NE,34,10.0,18.0,68,0.00,,,0.04,,2013-06-29 19:54:00,
2013-06-29 15:02:00,70.0,59.0,29.88,NE,34,10.0,18.0,68,0.00,,,0.04,,2013-06-29 20:02:00,
2013-06-29 15:11:00,68.0,57.0,29.88,NE,39,9.0,19.0,69,0.00,,,0.04,,2013-06-29 20:11:00,
2013-06-29 15:23:00,67.0,58.0,29.89,North,359,7.0,15.0,74,0.00,,,0.04,,2013-06-29 20:23:00,
2013-06-29 15:33:00,67.0,58.0,29.89,North,359,7.0,15.0,74,0.00,,,0.04,,2013-06-29 20:33:00,
2013-06-29 15:43:00,68.0,59.0,29.89,North,7,6.0,13.0,73,0.00,,,0.04,,2013-06-29 20:43:00,
2013-06-29 15:52:00,70.0,59.0,29.89,ENE,62,9.0,21.0,68,0.01,,,0.05,,2013-06-29 20:52:00,
2013-06-29 16:02:00,70.0,59.0,29.89,ENE,62,9.0,21.0,68,0.01,,,0.05,,2013-06-29 21:02:00,
2013-06-29 16:11:00,71.0,58.0,29.89,NE,44,11.0,20.0,64,0.01,,,0.05,,2013-06-29 21:11:00,
2013-06-29 16:22:00,71.0,57.0,29.89,NE,43,12.0,22.0,62,0.01,,,0.02,,2013-06-29 21:22:00,
2013-06-29 16:32:00,71.0,57.0,29.89,NE,43,12.0,22.0,62,0.01,,,0.02,,2013-06-29 21:32:00,
2013-06-29 16:42:00,71.0,57.0,29.89,NNE,13,14.0,20.0,62,0.01,,,0.02,,2013-06-29 21:42:00,
2013-06-29 16:52:00,71.0,57.0,29.89,NNE,24,11.0,19.0,62,0.00,,,0.02,,2013-06-29 21:52:00,
2013-06-29 17:01:00,71.0,57.0,29.89,NNE,24,11.0,19.0,62,0.00,,,0.02,,2013-06-29 22:01:00,
2013-06-29 17:11:00,72.0,58.0,29.90,NNE,21,12.0,19.0,61,0.00,,,0.02,,2013-06-29 22:11:00,
2013-06-29 17:21:00,72.0,57.0,29.90,ENE,61,9.0,20.0,60,0.00,,,0.02,,2013-06-29 22:21:00,
2013-06-29 17:33:00,72.0,57.0,29.90,ENE,61,9.0,20.0,60,0.00,,,0.02,,2013-06-29 22:33:00,
2013-06-29 17:43:00,71.0,56.0,29.91,North,354,9.0,18.0,60,0.00,,,0.02,,2013-06-29 22:43:00,
2013-06-29 17:53:00,71.0,56.0,29.91,NNE,25,10.0,16.0,59,0.00,,,0.02,,2013-06-29 22:53:00,
2013-06-29 18:02:00,71.0,56.0,29.91,NNE,25,10.0,16.0,59,0.00,,,0.02,,2013-06-29 23:02:00,
2013-06-29 18:12:00,71.0,55.0,29.90,NE,44,12.0,21.0,57,0.00,,,0.02,,2013-06-29 23:12:00,
2013-06-29 18:23:00,70.0,55.0,29.91,North,7,9.0,16.0,59,0.00,,,0.02,,2013-06-29 23:23:00,
2013-06-29 18:34:00,70.0,55.0,29.91,North,7,9.0,16.0,59,0.00,,,0.02,,2013-06-29 23:34:00,
2013-06-29 18:43:00,70.0,55.0,29.91,NNE,22,9.0,15.0,60,0.00,,,0.02,,2013-06-29 23:43:00,
2013-06-29 18:52:00,70.0,55.0,29.92,North,4,8.0,18.0,59,0.00,,,0.02,,2013-06-29 23:52:00,
2013-06-29 19:02:00,70.0,55.0,29.92,North,4,8.0,18.0,59,0.00,,,0.02,,2013-06-30 00:02:00,
2013-06-29 19:12:00,70.0,55.0,29.92,NE,40,11.0,17.0,59,0.00,,,0.02,,2013-06-30 00:12:00,
2013-06-29 19:22:00,69.0,55.0,29.92,NNE,24,10.0,16.0,60,0.00,,,0.02,,2013-06-30 00:22:00,
2013-06-29 19:33:00,69.0,55.0,29.92,NNE,24,10.0,16.0,60,0.00,,,0.02,,2013-06-30 00:33:00,
2013-06-29 19:43:00,69.0,55.0,29.93,North,359,9.0,14.0,60,0.00,,,0.02,,2013-06-30 00:43:00,
2013-06-29 19:52:00,68.0,54.0,29.93,North,10,9.0,15.0,62,0.00,,,0.02,,2013-06-30 00:52:00,
2013-06-29 20:01:00,68.0,54.0,29.93,North,10,9.0,15.0,62,0.00,,,0.02,,2013-06-30 01:01:00,
2013-06-29 20:11:00,68.0,54.0,29.93,NNE,26,11.0,17.0,60,0.00,,,0.02,,2013-06-30 01:11:00,
2013-06-29 20:22:00,67.0,53.0,29.94,North,11,9.0,14.0,61,0.00,,,0.02,,2013-06-30 01:22:00,
2013-06-29 20:33:00,67.0,53.0,29.94,North,11,9.0,14.0,61,0.00,,,0.02,,2013-06-30 01:33:00,
2013-06-29 20:44:00,67.0,53.0,29.94,NNE,24,10.0,15.0,61,0.00,,,0.02,,2013-06-30 01:44:00,
2013-06-29 20:53:00,66.0,52.0,29.94,NNE,22,8.0,17.0,61,0.00,,,0.02,,2013-06-30 01:53:00,
2013-06-29 21:02:00,66.0,52.0,29.94,NNE,22,8.0,17.0,61,0.00,,,0.02,,2013-06-30 02:02:00,
2013-06-29 21:11:00,65.0,52.0,29.95,North,359,8.0,13.0,62,0.00,,,0.02,,2013-06-30 02:11:00,
2013-06-29 21:23:00,64.0,51.0,29.95,NNE,12,10.0,14.0,63,0.00,,,0.02,,2013-06-30 02:23:00,
2013-06-29 21:33:00,64.0,51.0,29.95,NNE,12,10.0,14.0,63,0.00,,,0.02,,2013-06-30 02:33:00,
2013-06-29 21:43:00,64.0,51.0,29.96,North,7,9.0,13.0,63,0.00,,,0.02,,2013-06-30 02:43:00,
2013-06-29 21:53:00,63.0,51.0,29.96,NNE,24,10.0,15.0,64,0.00,,,0.02,,2013-06-30 02:53:00,
2013-06-29 22:01:00,63.0,51.0,29.96,NNE,24,10.0,15.0,64,0.00,,,0.02,,2013-06-30 03:01:00,
2013-06-29 22:12:00,63.0,51.0,29.97,NE,44,10.0,16.0,64,0.00,,,0.02,,2013-06-30 03:12:00,
2013-06-29 22:23:00,62.0,50.0,29.98,NNE,25,8.0,14.0,65,0.00,,,0.02,,2013-06-30 03:23:00,
2013-06-29 22:33:00,62.0,50.0,29.98,NNE,25,8.0,14.0,65,0.00,,,0.02,,2013-06-30 03:33:00,
2013-06-29 22:43:00,62.0,51.0,29.98,NNE,13,8.0,14.0,66,0.00,,,0.02,,2013-06-30 03:43:00,
2013-06-29 22:53:00,61.0,50.0,29.98,ENE,63,8.0,14.0,66,0.00,,,0.02,,2013-06-30 03:53:00,
2013-06-29 23:01:00,61.0,50.0,29.98,ENE,63,8.0,14.0,66,0.00,,,0.02,,2013-06-30 04:01:00,
2013-06-29 23:12:00,61.0,50.0,29.99,NNE,30,7.0,15.0,66,0.00,,,0.02,,2013-06-30 04:12:00,
2013-06-29 23:22:00,60.0,49.0,29.98,NNE,24,5.0,12.0,67,0.00,,,0.02,,2013-06-30 04:22:00,
2013-06-29 23:33:00,60.0,49.0,29.98,NNE,24,5.0,12.0,67,0.00,,,0.02,,2013-06-30 04:33:00,
2013-06-29 23:43:00,60.0,49.0,29.99,NNE,20,6.0,12.0,66,0.00,,,0.02,,2013-06-30 04:43:00,
2013-06-29 23:53:00,60.0,49.0,29.99,NNE,30,7.0,15.0,66,0.00,,,0.02,,2013-06-30 04:53:00,